DECAYED

STARLINK-5419, 54854 (Decayed)

Orbit data source: Space-Track

STARLINK-5419, 54854 was a payload satellite owned by SpaceX/Seattle (US) in LEO that was launched on Wed, 28 Dec 2022 UTC via an FALCON 9 launch vehicle from the Air Force Eastern Test Range (AFETR). Payload-class satellites include a variety of spacecraft equipped with specific instruments for various scientific and technological missions. These include communications satellites like Starlink; space stations such as the ISS; scientific satellites like the Hubble; Earth observation satellites from companies like Planet Labs, Umbra, and HawkEye 360; GPS; miniature CubeSats for education and research; and military/defense satellites.

Not visible in the next 10 days
Identifier
54854, 2022-177AL
Orbit
Decayed
Country
Flag of USUS
Related business
Manufacturer
SpaceX/Seattle
Mission
Decayed Commercial Communications
Bus & Motor
STARLINK, Unknown motor
Mass
305 kg wet, ~290 kg dry
Launch date (UTC)
2022-12-28 (3 years ago)
Launch vehicle
FALCON 9
Launch site
Air Force Eastern Test Range (AFETR)
Object type
Payload
Rocket body
Debris
Shape & HBR
Box + 1 Pan, 10.1 m
Radar Cross Section
13.562 m², Large (>1 m²)

Expand to show TLE details & history
Last TLE update: 1 year ago

TLE from 1 year ago
0 STARLINK-5419
1 54854U 22177AL  25186.89747323  .08576067  94329-5  45463-3 0  9996
2 54854  42.9928 345.8274 0009205 304.3708 185.1691 16.42103680139405
Epoch: 2025-07-05T21:32Z
TLE epoch observation values (Epoch: 2025-07-05T21:32:21.687Z)
Latitude
31.85784°
Longitude
-122.90011°
Altitude
167.035 km
Speed
7.808 km/s
True Right ascension
08h 17m 16s
True Declination
31° 41' 24"
Sunlit
Object was in daylight at epoch
Visualization orbit readout
Latitude
Unknown
Longitude
Unknown
Altitude
Unknown
Speed
Unknown
Apparent Right ascension
Unknown
Apparent Declination
Unknown
Sunlit
N/A
Visualization observer readout
Local Sidereal Time
23:18:36
Azimuth
Unknown
Elevation
Unknown
Doppler factor
Unknown
Orbital elements
Apogee altitude
168.275 km
Perigee altitude
156.234 km
Semi-major axis
6,540.392 km
Eccentricity
0.00092
Inclination
42.9928°
RAAN
345.8274°
Arg. of periapsis
304.3708°
True anomaly
185.15961°
Mean anomaly
185.1691°
Eccentric anomaly
185.16435°
Mean motion
4.10334 °/min
Orbital period
87.73 mins
BSTAR
0.00045463
Loading maneuver chart data...
Computing Atmospheric mass density...
Loading historical data...
Loading historical data...
Loading historical data...
Loading historical data...
Loading historical data...
Loading historical data...
Loading historical data...

Documentation

Showing up to 5 results
|